Terminal Aerodrome Forecast
Issued by NWS Houston/Galveston TX

Home | Current Version | Previous Version | Text Only | Print | Product List | Glossary On
Versions: 1 2 3 4 5 6 7 8 9 10 11 12 13 14 15 16 17 18 19 20 21 22 23 24 25 26 27 28 29 30 31 32 33 34 35 36 37 38 39 40 41 42 43 44 45 46 47 48 49 50
000
FTUS44 KHGX 050540
TAFHOU
TAF
KHOU 050540Z 0506/0606 34016G26KT P6SM VCSH OVC008
     FM050800 35024G34KT 6SM -RA BR OVC007
     FM051700 01020G30KT P6SM OVC012
     FM052100 36016G26KT P6SM SCT025 BKN100
     FM060200 01014KT P6SM SCT250=

USA.gov is the U.S. government's official web portal to all federal, state and local government web resources and services.